Tracking 32523 objects as of 12-Dec-2025
HD Live streaming from Space Station
objects crossing your sky now

SL-19 R/B

Track SL-19 R/B now!
10-day predictions


NORAD ID: 23440
Int'l Code: 1994-085B
Perigee: 1,884.5 km
Apogee: 2,178.9 km
Inclination: 64.8 °
Period: 127.8 minutes
Semi major axis: 8402 km
RCS: 5.691 m2 (large)
Launch date: December 26, 1994
Source: Commonwealth of Independent States (former USSR) (CIS)
Launch site: TYURATAM MISSILE AND SPACE COMPLEX (TTMTR)

Note: This is a ROCKET BODY
Your satellite tracking list
Your tracking list is empty




NASA's NSSDC Master Catalog

Two Line Element Set (TLE):
1 23440U 94085B   25346.24481006 -.00000039  00000-0  10675-3 0  9999
2 23440  64.8338 270.4772 0175154  15.8971 137.3688 11.27133776274546
Source of the keplerian elements: AFSPC